Regional Weather Roundup
Issued by NWS

Home | Current Version | Previous Version | Graphics & Text | Print | Product List | Glossary On
Versions: 1 2 3 4 5 6 7 8 9 10 11 12 13 14 15 16 17 18 19 20 21 22 23 24 25 26 27 28 29 30 31 32 33 34 35 36 37 38 39 40 41 42 43 44 45 46 47 48 49 50
000
ASUS45 KCYS 022310
RWRWY

WYOMING REGIONAL WEATHER ROUNDUP
NATIONAL WEATHER SERVICE CHEYENNE WY
500 PM MDT TUE JUN 02 2015

NOTE:  "FAIR" INDICATES FEW OR NO CLOUDS BELOW 12,000 FEET
WITH NO SIGNIFICANT WEATHER AND/OR OBSTRUCTIONS TO VISIBILITY.

WYZ001-030000-
YELLOWSTONE NATIONAL PARK

CITY           SKY/WX    TMP DP  RH WIND       PRES   REMARKS
LK YELLOWSTONE   N/A     58  33  39 W10G17    30.10F
W YELLOWSTONE  NOT AVBL

$$
WYZ002>013-054>058-071-098>099-030000-
NORTHERN WYOMING

CITY           SKY/WX    TMP DP  RH WIND       PRES   REMARKS
JACKSON        PTSUNNY   66  37  34 SW9       30.01F
CODY           FAIR      72  39  30 W12G23    29.90S
GREYBULL       CLOUDY    68  49  50 N23G31    29.85R
WORLAND        FAIR      74  45  35 E10       29.84F
SHERIDAN       FAIR      73  53  49 CALM      29.86R
BUFFALO        CLOUDY    70  51  51 N7        29.91R
GILLETTE       FAIR      77  49  37 N8        29.85F
HULETT         FAIR      77  50  38 N9G18     29.87S
NEWCASTLE      FAIR      72  48  43 MISG      29.86R

$$
WYZ014>020-022>026-101>103-030000-
CENTRAL WYOMING

CITY           SKY/WX    TMP DP  RH WIND       PRES   REMARKS
BIG PINEY      FAIR      68  35  29 NW14G23   30.04S
PINEDALE       MOCLDY    63  37  39 N7        30.05F
DUBOIS         FAIR      59  36  41 NW12G21   30.04F
LANDER         FAIR      73  44  35 N9        29.89F
RIVERTON       FAIR      76  38  25 W13       29.91S
CASPER         FAIR      81  34  18 W17G26    29.87S
DOUGLAS        FAIR      79  48  33 MISG      29.86F

$$
WYZ021-027>030-104>119-030000-
SOUTHERN WYOMING

CITY           SKY/WX    TMP DP  RH WIND       PRES   REMARKS
EVANSTON       FAIR      71  31  22 W25G31    30.06F
KEMMERER       FAIR      68  32  26 W18G32    30.08S
FORT BRIDGER   PTCLDY    75  28  17 W22G28    30.08S
ROCK SPRINGS   FAIR      72  30  21 SW12      30.02S
DIXON          FAIR      78  27  15 SW10G17   30.03F
RAWLINS        FAIR      75  27  17 SW16G28   30.00F
SARATOGA       FAIR      75  27  16 W9G25     30.05S
LARAMIE        FAIR      75  27  17 W14       30.03F
CHEYENNE       FAIR      79  36  21 SW7       29.94F
TORRINGTON     FAIR      84  45  25 MISG      29.81R
PINE BLUFFS    FAIR      82  39  21 S10       29.88S

$$



USA.gov is the U.S. government's official web portal to all federal, state and local government web resources and services.